Starlink 30892

operational
NORAD ID: 58366 Int'l Des: 2023-177 Owner: SPXS Country: US Constellation: starlink
LEOCIRCULAR

Starlink 30892について

説明を読み込み中...

リアルタイム位置

3D地球を読み込み中...

次回通過

高度履歴

Altitude vs Time

uPlot chart will show altitude changes over time

軌道要素

1 58366U 23177R 26036.70902735 .00001131 00000-0 98744-4 0 9990
2 58366 43.0024 165.4844 0001703 277.1209 82.9439 15.02541055123418
Epoch: Feb 5, 2026 • Age: 14 hours

現在のステータス

高度 560.6 km
速度 7.58 km/s
衛星直下点 -12.05°S, 96.81°W
打ち上げ日 Nov 18, 2023
運用期間 2.2 years
タイプ internet

技術仕様

分類 Payload
質量 730.00 kg
乾燥質量 700.00 kg
総質量 730.00 kg
長さ 0.30 m
直径 4.10 m
スパン 29.00 m
形状 Box + pan
製造者 SPXS
バスタイプ Starlink V2M
フェーズステータス In Orbit
所有者/国 SPXS/US

大規模コンステレーション

Loading constellations...